Flag for Germany Weather past 2 weeks in Bad Neuenahr-Ahrweiler, Rhineland-Palatinate, Germany

Now
44 °F

Passing clouds.


Feels Like: 39 °F
Forecast: 41 / 52 °F
Wind: 9 mph from West

Location: Bonn-Hangelar

Current Time: Mar 30, 2015 at 5:00:12 AM

Latest Report: Mar 30, 2015 at 4:00 AM


Visibility: 25 mi

Pressure: 29.50 "Hg

Humidity: 87%

Dew point: 40 °F

Location of Bad Neuenahr-AhrweilerLocation

Historic Weather in Bad Neuenahr-Ahrweiler — Graph

°F

Bad Neuenahr-Ahrweiler temperature yesterday

Maximum temperature yesterday: 52 °F (at 1:00 AM)
Minimum temperature yesterday: 47 °F (at 9:00 AM)
Average temperature yesterday: 49 °F

Past Weeks' High & Low Weather Summary

 TemperatureHumidityPressure
High60 °F (Mar 17, 1:00 PM)100% (Mar 16, 7:00 AM)30.40 "Hg (Mar 16, 7:00 AM)
Low32 °F (Mar 16, 4:00 AM)46% (Mar 17, 1:00 PM)29.35 "Hg (Mar 29, 6:00 PM)
Average43 °F85%30.07 "Hg
* Reported Mar 15 2:00 AM — Mar 30 3:00 AM, Bad Neuenahr-Ahrweiler, Weather by CustomWeather, © 2015

Note: Actual official high and low records may vary slightly from our data, if they occured in-between our weather recording intervals... More about our weather records

Advertising

Bad Neuenahr-Ahrweiler weather history for previous 24 hours

 ConditionsComfort  
Time TempWeatherWind HumidityBarometerVisibility
3:00 AM
Mon, Mar 30
44 °FPassing clouds.12 mph89%29.47 "Hg37 mi
2:00 AM45 °FLight rain. Passing clouds.12 mph91%29.47 "Hg16 mi
1:00 AM46 °FOvercast.8 mph88%29.47 "Hg25 mi
12:00 AM47 °FOvercast.10 mph83%29.47 "Hg19 mi
11:00 PM
Sun, Mar 29
47 °FOvercast.12 mph89%29.44 "Hg19 mi
10:00 PM47 °FLow clouds.15 mph90%29.41 "Hg22 mi
9:00 PM50 °FLight rain. Low clouds.18 mph88%29.35 "Hg7 mi
8:00 PM51 °FDrizzle. Low clouds.17 mph91%29.35 "Hg19 mi
7:00 PM51 °FDrizzle. Partly sunny.15 mph90%29.35 "Hg25 mi
6:00 PM51 °FDrizzle. Low clouds.16 mph91%29.35 "Hg22 mi
5:00 PMN/APassing clouds.7 mphN/AN/A17 mi
4:00 PM50 °FRain. Passing clouds.9 mph96%29.44 "Hg17 mi
3:00 PM49 °FLow clouds.14 mph93%29.47 "Hg9 mi
2:00 PM49 °FLight rain. Low clouds.14 mph94%29.54 "Hg9 mi
1:00 PM49 °FRain. Low clouds.13 mph95%29.60 "Hg9 mi
12:00 PM48 °FRain. Low clouds.12 mph94%29.64 "Hg9 mi
11:00 AM47 °FRain. Low clouds.12 mph93%29.66 "Hg9 mi
10:00 AM47 °FOvercast.13 mph93%29.70 "Hg9 mi
9:00 AM47 °FLight rain. Low clouds.10 mph91%29.71 "Hg9 mi
8:00 AM48 °FRain. Passing clouds.7 mph83%29.72 "Hg11 mi
7:00 AM49 °FOvercast.13 mph81%29.74 "Hg25 mi
6:00 AM49 °FOvercast.12 mph82%29.75 "Hg25 mi
5:00 AM50 °FOvercast.10 mph82%29.76 "Hg25 mi
Weather by CustomWeather, © 2015

See weather overviewHow to use our weather pages